Location: Celina Division
(33.3022°N, 96.7580°W)
Time: 04:22:43
(UTC+00:00)

METEOR M2 - Visible Passes

Search period start: 27 February 2024 00:00
Search period end: 08 March 2024 00:00
Orbit: 818 x 826 km, 98.4° (Epoch: 26 February)

Date Brightness Start Highest point End Pass type
(mag) Time Alt. Az. Time Alt. Az. Time Alt. Az.
27 Feb ? 12:03:10 10° NNE 12:08:35 82° ESE 12:13:57 10° S visible
28 Feb ? 11:43:12 10° NNE 11:48:27 52° E 11:53:39 10° S visible
29 Feb ? 00:44:05 10° SW 00:46:57 15° W 00:49:51 10° WNW visible
29 Feb ? 11:23:26 10° NE 11:28:15 33° E 11:33:02 10° SSE visible
01 Mar ? 11:04:01 10° NE 11:08:00 21° E 11:11:57 10° SE visible
02 Mar ? 10:45:24 10° ENE 10:47:42 13° E 10:49:59 10° ESE visible
02 Mar ? 12:22:52 10° N 12:28:12 63° WNW 12:33:30 10° SSW visible
03 Mar ? 12:02:42 10° NNE 12:08:06 83° ESE 12:13:29 10° S visible
04 Mar ? 11:42:42 10° NNE 11:47:58 52° E 11:53:11 10° S visible
05 Mar ? 11:22:58 10° NE 11:27:46 33° E 11:32:33 10° SSE visible
06 Mar ? 11:03:32 10° NE 11:07:31 21° E 11:11:29 10° SE visible
07 Mar ? 10:44:54 10° ENE 10:47:12 13° E 10:49:31 10° ESE visible
